Track NAVSTAR 34 (USA 94) now! NAVSTAR 34 (USA 94) is classified as:
1 22779U 93054A 22148.05882812 -.00000067 00000-0 00000-0 0 9993 2 22779 54.0112 271.4700 0049906 231.4755 120.3021 1.89129438208002